{"data":{"norad_id":66139,"intl_designator":"2025-237AB","name":"STARLINK-35549","alt_names":[],"object_type":"PAYLOAD","status":"ACTIVE","operator":null,"country":"US","launch_date":"2025-10-22","launch_site_code":"AFWTR","launch_vehicle":null,"mission":null,"orbit_class":"UNKNOWN","rcs_meters":null,"size_class":null,"mass_kg":null,"dimensions":null,"purposes":["comms"],"wikipedia_slug":null,"has_3d_model":false,"image_url":null,"decayed_at":null,"tle_current":{"epoch":"2026-05-25T02:35:19.708800Z","epoch_age_seconds":59728,"freshness":"FRESH","line1":"1 66139U 25237AB  26145.10786700  .00011683  00000+0  40580-3 0  9999","line2":"2 66139  53.1610  44.4368 0000952  98.3179 261.7930 15.30211662 34311","mean_motion":15.30211662,"eccentricity":9.52e-5,"inclination_deg":53.161,"raan_deg":44.4368,"arg_perigee_deg":98.3179,"mean_anomaly_deg":261.793,"bstar":0.0004058,"rev_number":3431,"period_min":94.104628513804,"perigee_km":474.52781320845,"apogee_km":475.83268481266,"semimajor_km":6853.3172490106,"source":"CELESTRAK","updated_at":"2026-05-25T13:38:21.067447Z"}}}